Shaw AFB, SC

5:33 PM EDT on April 27, 2017 (GMT -0400)
Shaw Air Force Base

Weather History for KSSC - April, 2013

Change the Weather History Date:

Friday, April 19, 2013

  Actual Average Record
Temperature  
Mean Temperature 72 °F -  
Max Temperature 85 °F 73 °F 89 °F (2002)
Min Temperature 57 °F 51 °F 32 °F (2001)
Cooling Degree Days 6    
Growing Degree Days 22 (Base 50)    
Moisture  
Dew Point 63 °F    
Average Humidity 83    
Maximum Humidity 100    
Minimum Humidity 46    
Precipitation  
Precipitation 1.80 in - - ()
Sea Level Pressure  
Sea Level Pressure 29.88 in    
Wind  
Wind Speed 12 mph (SSW)    
Max Wind Speed 43 mph    
Max Gust Speed 82 mph    
Visibility 8 miles    
Events Rain , Thunderstorm    
Averages and records for this station are not official NWS values.
T = Trace of Precipitation, MM = Missing Value Source: NWS Daily Summary

Daily Weather History Graph

Daily Weather History Graph

Search for Another Location

Airport or City:

Trip Planner

Search our weather history database for the weather conditions in past years. The results will help you decide how hot, cold, wet, or windy it might be!

Date:

Astronomy

Apr. 19, 2013 Rise Set
Actual Time 6:45 AM EDT 7:56 PM EDT
Civil Twilight 6:19 AM EDT 8:22 PM EDT
Nautical Twilight 5:49 AM EDT 8:53 PM EDT
Astronomical Twilight 5:17 AM EDT 9:25 PM EDT
Moon 1:56 PM EDT (4/19) 2:43 AM EDT (4/19)
Length of Visible Light 14h 02m
Length of Day
13h 10m
First Quarter, 61% of the Moon is Illuminated
Apr 19
First Quarter
Apr 25
Full
May 2
Last Quarter
May 9
New
May 18
First Quarter

Hourly Weather History & Observations

Time (EDT) Temp. Heat Index Dew Point Humidity Pressure Visibility Wind Dir Wind Speed Gust Speed Precip Events Conditions
12:58 AM 67.5 °F - 61.5 °F 81% 30.00 in 10.0 mi SE 8.1 mph - N/A   Overcast
1:58 AM 65.8 °F - 61.9 °F 87% 29.98 in 10.0 mi SSE 4.6 mph - N/A   Partly Cloudy
2:58 AM 65.3 °F - 63.0 °F 92% 29.95 in 10.0 mi SSE 3.5 mph - N/A   Scattered Clouds
3:51 AM 64.4 °F - 64.4 °F 100% 29.95 in 10.0 mi South 3.5 mph - N/A   Partly Cloudy
3:58 AM 65.1 °F - 63.5 °F 94% 29.95 in 10.0 mi South 2.3 mph - N/A   Partly Cloudy
4:58 AM 65.1 °F - 63.7 °F 95% 29.93 in 10.0 mi South 3.5 mph - N/A   Clear
5:58 AM 66.2 °F - 64.4 °F 94% 29.92 in 10.0 mi South 5.8 mph - N/A   Clear
6:43 AM 68.0 °F - 64.4 °F 88% 29.93 in 10.0 mi South 8.1 mph - N/A   Mostly Cloudy
6:58 AM 67.6 °F - 64.8 °F 90% 29.93 in 10.0 mi South 5.8 mph - N/A   Mostly Cloudy
7:18 AM 68.0 °F - 64.4 °F 88% 29.94 in 10.0 mi South 8.1 mph - N/A   Overcast
7:58 AM 69.6 °F - 65.5 °F 87% 29.95 in 10.0 mi South 11.5 mph 18.4 mph N/A   Overcast
8:33 AM 69.8 °F - 66.2 °F 88% 29.94 in 10.0 mi South 13.8 mph - N/A   Overcast
8:58 AM 71.2 °F - 65.5 °F 82% 29.95 in 10.0 mi South 13.8 mph - N/A   Overcast
9:48 AM 73.4 °F - 66.2 °F 78% 29.94 in 10.0 mi SSW 17.3 mph - N/A   Overcast
9:53 AM 75.2 °F - 64.4 °F 69% 29.94 in 10.0 mi South 18.4 mph 25.3 mph N/A   Overcast
9:58 AM 74.7 °F - 65.1 °F 72% 29.94 in 10.0 mi South 15.0 mph 25.3 mph N/A   Overcast
10:43 AM 77.0 °F - 64.4 °F 65% 29.92 in 10.0 mi SSW 19.6 mph - N/A   Scattered Clouds
10:48 AM 78.8 °F - 64.4 °F 61% 29.92 in 10.0 mi SSW 18.4 mph - N/A   Mostly Cloudy
10:58 AM 78.8 °F - 64.6 °F 62% 29.92 in 10.0 mi SSW 16.1 mph 25.3 mph N/A   Mostly Cloudy
11:03 AM 78.8 °F - 64.4 °F 61% 29.92 in 10.0 mi SSW 18.4 mph 25.3 mph N/A   Scattered Clouds
11:58 AM 82.9 °F 84.2 °F 63.5 °F 52% 29.90 in 10.0 mi South 19.6 mph 27.6 mph N/A   Scattered Clouds
12:58 PM 82.9 °F 83.8 °F 62.8 °F 50% 29.86 in 10.0 mi South 18.4 mph 35.7 mph N/A   Scattered Clouds
1:05 PM 82.4 °F 83.4 °F 62.6 °F 51% 29.85 in 10.0 mi South 21.9 mph 31.1 mph N/A   Overcast
1:58 PM 84.6 °F 85.4 °F 62.8 °F 48% 29.83 in 10.0 mi South 20.7 mph 31.1 mph N/A   Mostly Cloudy
2:58 PM 85.3 °F 85.9 °F 62.2 °F 46% 29.82 in 10.0 mi South 21.9 mph - N/A   Scattered Clouds
3:58 PM 83.5 °F 84.3 °F 62.4 °F 49% 29.80 in 10.0 mi South 15.0 mph 23.0 mph N/A   Mostly Cloudy
4:58 PM 80.8 °F 82.1 °F 63.1 °F 55% 29.79 in 10.0 mi South 6.9 mph - N/A   Mostly Cloudy
5:02 PM 80.6 °F 81.8 °F 62.6 °F 54% 29.84 in 10.0 mi West 25.3 mph 32.2 mph N/A Rain , Thunderstorm Light Rain
5:03 PM 78.8 °F - 64.4 °F 61% 29.84 in 5.0 mi WSW 31.1 mph 50.6 mph N/A Rain , Thunderstorm Heavy Thunderstorms and Rain
5:09 PM 73.4 °F - 62.6 °F 69% 29.83 in 0.5 mi SW 21.9 mph 50.6 mph N/A Rain , Thunderstorm Heavy Thunderstorms and Rain
5:14 PM 69.8 °F - 62.6 °F 78% 29.82 in 0.2 mi SW 34.5 mph 50.6 mph N/A Rain , Thunderstorm Heavy Thunderstorms and Rain
5:15 PM 69.8 °F - 62.6 °F 78% 29.82 in 0.2 mi SW 38.0 mph 49.5 mph N/A Rain , Thunderstorm Heavy Thunderstorms and Rain
5:20 PM 68.0 °F - 60.8 °F 78% 29.80 in 0.2 mi SSW 21.9 mph 81.7 mph N/A Rain , Thunderstorm Heavy Thunderstorms and Rain
5:25 PM 66.2 °F - 60.8 °F 83% 29.79 in 0.2 mi SW 2.3 mph 81.7 mph N/A Rain , Thunderstorm Light Thunderstorms and Rain
5:29 PM 68.0 °F - 60.8 °F 78% 29.80 in 2.5 mi SW 9.2 mph 61.0 mph N/A Thunderstorm Unknown
5:32 PM 69.8 °F - 62.6 °F 78% 29.83 in 10.0 mi SW 17.3 mph 20.7 mph N/A Rain , Thunderstorm Light Thunderstorms and Rain
5:38 PM 68.0 °F - 62.6 °F 83% 29.85 in 0.5 mi SSW 42.6 mph 52.9 mph N/A Rain , Thunderstorm Heavy Thunderstorms and Rain
5:43 PM 66.2 °F - 60.8 °F 83% 29.84 in 0.2 mi SSW 26.5 mph 52.9 mph N/A Rain , Thunderstorm Heavy Thunderstorms and Rain
5:46 PM 66.2 °F - 60.8 °F 83% 29.83 in 0.2 mi SSW 17.3 mph 52.9 mph N/A Rain , Thunderstorm Heavy Thunderstorms and Rain
5:51 PM 64.4 °F - 60.8 °F 88% 29.83 in 1.2 mi SSW 11.5 mph - N/A Rain , Thunderstorm Light Thunderstorms and Rain
5:58 PM 65.3 °F - 61.9 °F 89% 29.84 in 4.0 mi SSW 11.5 mph - 1.49 in Rain , Thunderstorm Light Thunderstorms and Rain
6:08 PM 66.2 °F - 62.6 °F 88% 29.85 in 10.0 mi SSW 12.7 mph - N/A Rain , Thunderstorm Light Rain
6:28 PM 66.2 °F - 62.6 °F 88% 29.88 in 5.0 mi South 8.1 mph - N/A Rain Light Rain
6:38 PM 64.4 °F - 62.6 °F 94% 29.87 in 2.5 mi South 9.2 mph - N/A Rain Light Rain
6:43 PM 64.4 °F - 62.6 °F 94% 29.87 in 2.5 mi South 8.1 mph - N/A Rain Light Rain
6:48 PM 64.4 °F - 64.4 °F 100% 29.87 in 6.0 mi South 8.1 mph - N/A Rain Light Rain
6:58 PM 65.1 °F - 64.0 °F 96% 29.86 in 8.0 mi South 6.9 mph - 0.16 in Rain Light Rain
7:58 PM 66.0 °F - 64.6 °F 95% 29.87 in 9.0 mi South 8.1 mph - 0.05 in Rain Light Rain
8:00 PM 66.2 °F - 64.4 °F 94% 29.87 in 9.0 mi South 8.1 mph - N/A Rain Light Rain
8:05 PM 66.2 °F - 64.4 °F 94% 29.87 in 9.0 mi South 8.1 mph - N/A Rain Light Rain
8:15 PM 66.2 °F - 64.4 °F 94% 29.87 in 10.0 mi South 8.1 mph - N/A Rain Light Rain
8:25 PM 66.2 °F - 64.4 °F 94% 29.88 in 9.0 mi SSW 8.1 mph - N/A Rain Light Rain
8:40 PM 66.2 °F - 66.2 °F 100% 29.87 in 9.0 mi South 8.1 mph - N/A Rain Light Rain
8:50 PM 66.2 °F - 66.2 °F 100% 29.88 in 10.0 mi SSW 9.2 mph - N/A Rain Light Rain
8:55 PM 66.2 °F - 66.2 °F 100% 29.87 in 10.0 mi South 9.2 mph - N/A Rain Light Rain
8:58 PM 66.9 °F - 65.7 °F 96% 29.87 in 10.0 mi South 9.2 mph - 0.05 in Rain Light Rain
9:01 PM 66.2 °F - 66.2 °F 100% 29.88 in 9.0 mi South 8.1 mph - N/A Rain Light Rain
9:06 PM 66.2 °F - 66.2 °F 100% 29.87 in 8.0 mi South 8.1 mph - N/A Rain Light Rain
9:21 PM 68.0 °F - 66.2 °F 94% 29.87 in 8.0 mi SSW 8.1 mph - N/A Rain Light Rain
9:26 PM 68.0 °F - 66.2 °F 94% 29.86 in 8.0 mi SSW 6.9 mph - N/A Rain Light Rain
9:31 PM 68.0 °F - 66.2 °F 94% 29.85 in 9.0 mi SSW 6.9 mph - N/A Rain Light Rain
9:36 PM 66.2 °F - 66.2 °F 100% 29.86 in 10.0 mi SSW 8.1 mph - N/A Rain Light Rain
9:39 PM 66.2 °F - 66.2 °F 100% 29.85 in 10.0 mi SSW 10.4 mph - N/A   Overcast
9:41 PM 66.2 °F - 66.2 °F 100% 29.85 in 10.0 mi SSW 10.4 mph - N/A   Light Drizzle
9:46 PM 66.2 °F - 66.2 °F 100% 29.85 in 10.0 mi South 10.4 mph - N/A   Light Drizzle
9:50 PM 66.2 °F - 66.2 °F 100% 29.85 in 10.0 mi SSW 11.5 mph - N/A   Overcast
9:55 PM 66.2 °F - 64.4 °F 94% 29.84 in 10.0 mi SSW 10.4 mph - N/A   Overcast
9:58 PM 66.7 °F - 65.1 °F 95% 29.84 in 10.0 mi SSW 9.2 mph - 0.03 in   Overcast
10:03 PM 66.2 °F - 64.4 °F 94% 29.85 in 10.0 mi SSW 10.4 mph - N/A   Overcast
10:38 PM 66.2 °F - 64.4 °F 94% 29.89 in 10.0 mi SW 10.4 mph - N/A   Overcast
10:39 PM 66.2 °F - 64.4 °F 94% 29.90 in 10.0 mi SW 11.5 mph - N/A Rain Light Rain
10:40 PM 66.2 °F - 64.4 °F 94% 29.90 in 10.0 mi WSW 12.7 mph - N/A Rain Light Rain
10:55 PM 64.4 °F - 59.0 °F 83% 29.90 in 10.0 mi West 16.1 mph 28.8 mph N/A Rain Light Rain
10:58 PM 64.6 °F - 60.3 °F 86% 29.90 in 10.0 mi West 16.1 mph 28.8 mph 0.00 in Rain Light Rain
11:03 PM 62.6 °F - 57.2 °F 82% 29.91 in 10.0 mi West 12.7 mph - N/A Rain Light Rain
11:08 PM 62.6 °F - 57.2 °F 82% 29.91 in 10.0 mi West 11.5 mph - N/A Rain Light Rain
11:45 PM 59.0 °F - 48.2 °F 67% 29.93 in 10.0 mi WSW 13.8 mph 26.5 mph N/A   Overcast
11:58 PM 58.1 °F - 48.9 °F 71% 29.93 in 10.0 mi WSW 10.4 mph - 0.02 in   Overcast
11:59 PM 57.2 °F - 50.0 °F 77% 29.93 in 10.0 mi WSW 11.5 mph - N/A Rain Light Rain